Content
SEND FEEDBACK

Daily
Averages
Monthly
Summary
United States of America

HILLSIDE, NEW JERSEY


Home > North America > United States > New Jersey
Elevation: 40 feet     Latitude: 40 40N     Longitude: 074 14W

WEATHER
 
SELECT A DAY
Number of Records: 193,321;   Date Range: 1/1/95 - 11/26/14
 
SHARE

PRINT THIS DATA

[ ← Previous Day ]
WEATHER ALMANAC - MAY 6, 2014
[ Next Day → ]
[ °C ]   °F
Weather ElementAverageHighLow
Temperature62.6 °F71.1 °F (3:51 pm)52 °F (3:51 am)
Dewpoint28.3 °F35.1 °F (7:51 am)25 °F (8:51 pm)
Humidity28.5 %49 % (7:51 am)19 % (3:51 pm)
Barometer29.94 in30.07 in (11:51 pm)29.88 in (2:51 am)
Wind Speed10.3 mph18.4 mph (3:51 pm)
Wind Gust34.5 mph (3:51 pm)
Weather ElementAverage
Visibility10 mi
Wind DirectionWNW (276 °)

Weather ElementTotal
Precipitation---
Heating Degree Days3.5 (Base 65)
Growing Degree Days11.6 (Base 50)
Averaged from 20 records on May 6, 2014
WEATHER CONDITIONS BREAKOUT
WIND DIRECTION BREAKOUT
WEATHER BY HOUR - MAY 6, 2014
[ °C ]   °F
Local TimeTemperatureDewpointHumidityBarometerVisibilityWind DirectionWind SpeedGust SpeedPrecipitationEventsConditions
1:51 AM54.0 °F26.1 °F34 %29.89 in10.0 miNorth (360°)9.2 mphPartly Cloudy
2:51 AM53.1 °F26.1 °F35 %29.88 in10.0 miNNW (340°)8.1 mphPartly Cloudy
3:51 AM52.0 °F28.9 °F41 %29.89 in10.0 miNorth (360°)6.9 mphMostly Cloudy
7:51 AM54.0 °F35.1 °F49 %29.95 in10.0 miNNE (20°)8.1 mphMostly Cloudy
8:51 AM55.9 °F34.0 °F44 %29.95 in10.0 miCalmMostly Cloudy
10:51 AM61.0 °F30.0 °F31 %29.95 in10.0 miCalmMostly Cloudy
11:51 AM66.0 °F30.0 °F26 %29.93 in10.0 miWest (270°)5.8 mphMostly Cloudy
12:40 PM64.4 °F28.4 °F26 %29.92 in10.0 miWNW (300°)11.5 mph21.9 mphScattered Clouds
12:51 PM66.9 °F30.0 °F25 %29.92 in10.0 miWNW (290°)12.7 mph21.9 mphScattered Clouds
1:51 PM68.0 °F28.0 °F22 %29.91 in10.0 miNNW (340°)16.1 mph27.6 mphScattered Clouds
2:51 PM69.1 °F27.0 °F21 %29.88 in10.0 miWNW (290°)9.2 mph20.7 mphScattered Clouds
3:51 PM71.1 °F26.1 °F19 %29.88 in10.0 miNW (320°)18.4 mph34.5 mphScattered Clouds
4:51 PM70.0 °F28.9 °F22 %29.89 in10.0 miNNW (330°)10.4 mph24.2 mphScattered Clouds
5:51 PM69.1 °F28.0 °F22 %29.92 in10.0 miNNW (330°)18.4 mph24.2 mphScattered Clouds
6:51 PM66.0 °F28.9 °F25 %29.95 in10.0 miNNW (330°)13.8 mph23.0 mphScattered Clouds
7:51 PM64.9 °F26.1 °F23 %29.98 in10.0 miNW (320°)17.3 mph23.0 mphScattered Clouds
8:51 PM64.0 °F25.0 °F23 %30.01 in10.0 miNW (320°)9.2 mphScattered Clouds
9:51 PM63.0 °F26.1 °F25 %30.04 in10.0 miNW (320°)9.2 mphScattered Clouds
10:51 PM61.0 °F27.0 °F27 %30.06 in10.0 miNNW (340°)8.1 mphPartly Cloudy
11:51 PM59.0 °F27.0 °F29 %30.07 in10.0 miNNW (340°)12.7 mphPartly Cloudy
Hourly data recorded from KEWR, located miles away from Hillside, New Jersey







STORIES FROM OUR PARTNERS